Temperature
20 20 20 19 19 18 18 18 17 17 16 16 15 15 14 14 14 14 13 13 13 13 13 13 13 13 13 13 13 13 13 13 14 14 14 14 14 15 15 15 15 16 16
20 20 20 19 19 19 18 18 17 16 16 16 15 15 14 14 14 14 13 13 13 13 13 13 13 13 13 13 13 13 13 13 13 13 14 14 14 14 15 15 15 15 16
20 20 20 20 19 19 18 18 17 16 16 15 15 15 14 14 14 14 13 13 13 13 13 13 13 13 13 13 13 13 13 13 13 13 13 14 14 14 14 15 15 15 15
20 20 20 20 19 19 18 18 17 16 16 15 15 15 14 14 14 13 13 13 13 13 13 13 13 13 13 13 13 13 13 13 13 13 13 13 14 14 14 14 14 15 15
21 21 20 20 20 19 18 18 17 16 16 15 15 15 14 14 14 14 13 13 13 13 13 13 13 13 13 13 13 13 13 13 13 13 13 13 13 13 13 13 14 14 14
21 21 20 20 19 19 18 18 17 16 16 15 15 15 14 14 14 14 14 13 13 13 13 13 13 13 13 13 13 13 13 13 13 13 13 13 13 13 13 13 13 14 14
21 21 21 20 20 19 18 18 17 16 16 15 15 15 14 14 14 14 14 13 13 13 13 13 13 13 13 13 13 13 13 13 13 13 13 13 13 13 13 13 13 13 14
21 21 21 20 20 19 19 18 17 17 16 16 15 15 14 14 14 14 14 13 13 13 13 13 13 13 13 13 13 13 13 13 13 13 13 13 13 13 13 13 13 13 13
22 21 21 21 20 19 19 18 18 17 16 16 15 15 15 14 14 14 14 13 13 13 13 13 13 13 13 13 13 13 13 13 13 13 13 13 13 13 13 13 13 13 13
22 21 21 21 20 20 19 18 18 17 16 16 15 15 15 15 14 14 14 14 13 13 13 13 13 13 13 13 13 13 13 13 13 13 13 13 13 13 13 13 13 13 13
22 22 21 21 20 19 19 18 18 17 17 16 16 15 15 15 14 14 14 14 13 13 13 13 13 13 13 13 13 13 13 13 13 13 13 13 13 13 13 13 13 13 13
22 22 21 21 20 20 19 19 18 17 17 16 16 15 15 15 14 14 14 14 14 13 13 13 13 13 13 13 13 13 13 13 13 13 13 13 13 13 13 13 13 13 13
22 21 21 21 20 20 19 19 18 18 17 17 16 16 15 15 15 14 14 14 14 13 13 13 13 13 13 13 13 13 13 13 13 13 13 13 13 13 13 13 13 13 13
21 21 21 21 20 20 20 19 19 18 18 17 17 16 16 15 15 14 14 14 14 14 13 13 13 13 13 13 13 13 13 13 13 13 13 13 13 13 13 13 13 13 13
21 21 21 21 20 20 20 19 19 18 18 17 17 16 16 15 15 15 14 14 14 14 13 13 13 13 13 13 13 13 13 13 13 13 13 13 13 13 13 13 13 13 13
20 20 20 20 20 20 20 19 19 18 18 18 17 17 16 16 15 15 14 14 14 14 14 13 13 13 13 13 13 13 13 13 13 13 13 13 13 13 13 13 13 13 13
20 20 20 20 20 20 20 19 19 19 18 18 17 17 16 16 16 15 15 14 14 14 14 14 14 13 13 13 13 13 13 13 13 13 13 13 12 12 12 12 13 13 13
20 20 20 20 20 20 20 19 19 19 18 18 17 17 17 16 16 15 15 14 14 14 14 14 14 14 14 13 13 13 13 13 13 13 13 13 12 12 12 12 12 12 12
19 19 19 19 19 19 19 19 19 18 18 18 18 17 17 16 16 16 15 15 14 14 14 14 14 14 14 14 13 13 13 13 13 13 12 12 12 12 12 12 12 12 12
19 19 19 19 19 19 19 19 18 18 18 18 18 17 17 16 16 16 15 15 15 14 14 14 14 14 14 14 13 13 13 13 13 13 12 12 12 12 12 12 12 12 12
18 18 18 18 18 18 18 18 18 18 18 18 17 17 17 16 16 16 15 15 15 14 14 14 14 14 14 14 13 13 13 13 13 13 12 12 12 12 12 12 12 12 12
18 18 18 18 18 18 18 18 18 18 17 17 17 17 17 16 16 16 16 15 15 15 14 14 14 14 14 14 14 13 13 13 13 13 12 12 12 12 12 11 11 11 11
17 17 17 17 17 17 17 17 17 17 17 17 17 17 16 16 16 16 15 15 15 14 14 14 14 14 14 14 13 13 13 13 13 12 12 12 12 12 11 11 11 11 11
16 16 16 16 16 16 16 16 16 16 16 16 16 16 16 16 16 15 15 15 15 15 14 14 14 14 14 14 13 13 13 13 12 12 12 12 11 11 11 11 11 11 11
15 15 15 15 15 15 15 15 15 15 15 15 16 16 16 15 15 15 15 15 15 15 14 14 14 14 14 14 13 13 13 12 12 12 12 11 11 11 11 11 11 10 10
14 14 14 14 14 14 14 15 15 15 15 15 15 15 15 15 15 15 15 15 14 14 14 14 14 14 14 13 13 13 12 12 12 12 11 11 11 11 11 11 10 10 10
Wind_Speed
6 4 6 7 7 6 6 5 5 4 3 2 2 1 0 1 2 2 3 3 3 3 1 2 2 1 1 1 1 0 1 1 1 1 2 3 2 2 2 1 1 1 1
5 5 6 6 7 7 6 6 5 4 3 2 2 1 1 1 1 2 3 3 3 3 2 1 1 1 1 1 1 0 1 1 1 1 2 2 4 3 3 2 2 1 1
9 7 7 7 7 7 8 7 6 5 4 3 2 2 2 2 2 2 3 3 4 4 2 2 2 1 1 1 1 1 2 1 1 1 2 2 1 1 3 3 2 2 2
8 8 8 8 9 8 7 6 6 5 4 4 3 3 2 1 2 2 3 4 4 3 3 2 1 1 1 1 2 1 1 2 1 1 1 1 2 2 1 2 2 2 2
9 9 10 10 8 7 7 6 5 4 4 4 4 3 2 2 2 2 3 4 4 4 4 3 2 1 1 1 1 1 1 1 2 1 1 1 1 1 2 0 2 2 2
7 8 7 6 6 5 6 6 6 5 4 4 4 4 4 2 1 2 3 3 3 3 4 3 2 2 1 1 1 1 2 1 2 1 1 2 2 1 2 1 0 1 2
7 7 8 8 8 8 8 7 7 6 5 5 5 4 4 4 3 3 3 3 2 3 4 3 2 2 2 1 1 1 1 2 2 2 2 2 2 2 2 2 1 0 1
7 8 9 9 9 9 8 8 8 7 6 6 5 4 4 3 3 3 3 3 3 3 4 3 3 2 2 1 0 0 1 1 2 2 2 1 1 2 2 3 3 1 1
7 8 8 8 9 9 10 10 9 7 6 6 5 4 4 4 4 3 2 2 3 3 3 3 2 2 2 1 0 0 1 1 1 1 2 1 1 1 2 2 3 3 2
6 7 7 8 8 8 8 7 8 8 7 6 6 5 5 4 4 2 2 3 3 2 2 2 2 2 2 1 1 0 0 0 0 1 1 1 0 1 1 2 2 2 3
7 7 7 7 7 6 6 7 7 7 6 7 6 5 5 4 3 3 3 3 2 2 2 2 2 2 2 1 1 1 0 0 0 0 1 1 1 1 1 1 2 2 2
4 4 5 5 6 7 7 8 8 7 7 7 6 6 5 4 3 3 4 3 2 2 2 1 1 2 1 1 0 1 1 0 1 1 1 1 1 1 1 1 2 2 2
3 2 3 5 6 7 8 8 8 8 7 6 6 5 5 5 5 5 4 3 3 2 1 1 1 2 2 1 1 1 1 0 1 1 1 1 2 1 1 1 2 1 2
2 2 3 4 5 6 7 7 8 7 7 6 7 7 7 6 6 5 4 3 3 2 2 2 2 2 2 2 1 0 1 1 1 1 1 1 2 2 2 2 2 2 2
4 3 4 4 4 5 5 6 7 6 7 7 7 8 7 6 5 4 4 3 3 3 3 2 2 2 2 2 2 1 1 0 1 1 1 1 1 2 2 2 3 3 3
5 4 4 3 4 5 6 6 7 7 7 8 9 7 6 5 5 5 5 4 3 3 2 2 2 2 2 3 3 3 1 1 0 1 1 1 1 1 1 2 3 5 4
5 4 4 4 5 5 6 7 7 6 7 8 7 7 6 6 6 6 5 5 4 3 3 3 3 3 4 3 3 3 2 2 1 1 0 1 1 1 1 1 1 1 3
6 6 5 5 4 3 3 4 3 5 7 7 7 7 7 7 6 5 6 6 4 4 4 4 4 4 4 4 4 4 2 2 1 1 1 1 1 0 2 2 2 1 0
4 4 4 4 3 3 2 2 3 4 5 7 8 8 8 7 7 7 7 6 5 5 4 3 4 4 5 4 5 4 2 1 1 1 1 1 1 2 2 3 2 0 2
5 5 4 3 3 3 0 3 3 4 6 8 8 7 8 8 9 9 7 5 5 6 5 4 5 5 5 5 5 6 3 2 1 1 1 1 2 1 3 3 3 2 2
6 5 4 4 4 3 0 2 3 6 7 6 5 5 7 8 8 7 5 5 5 5 5 5 4 5 5 6 6 7 4 4 3 2 1 1 1 1 2 3 3 3 2
7 6 5 6 5 2 1 2 5 6 4 3 4 5 6 6 6 6 6 5 6 6 6 5 4 4 4 5 6 8 8 7 4 3 2 2 2 3 3 2 2 3 3
7 6 5 6 6 3 2 5 6 4 2 3 4 5 5 5 4 6 6 5 5 6 6 5 5 5 4 4 7 8 9 9 5 4 5 4 3 3 2 2 3 3 3
6 6 6 6 7 6 5 6 5 3 3 4 4 4 4 4 4 4 5 6 6 6 6 6 7 5 4 4 4 4 5 6 5 3 3 4 4 3 3 3 2 2 2
6 5 5 6 8 7 7 6 4 3 4 4 4 4 4 5 5 5 5 6 7 8 8 7 7 7 7 8 10 8 7 7 6 5 3 2 2 2 2 2 2 2 2
6 6 6 7 8 8 8 7 4 4 4 5 5 4 4 4 4 4 3 4 5 8 10 10 8 7 9 9 10 12 12 12 12 7 4 4 4 4 4 3 2 1 1
Wind_Direction
226 193 177 163 157 163 161 155 151 152 131 113 109 96 8 329 333 327 328 329 331 336 332 316 326 335 324 287 288 354 29 13 356 52 14 1 9 22 3 347 30 39 26
201 186 172 165 170 173 171 168 167 168 165 150 146 162 175 256 276 308 330 331 332 330 327 313 306 306 306 325 329 86 95 20 42 104 82 13 360 4 3 11 35 37 39
202 191 179 180 177 182 182 181 180 178 173 145 108 74 48 20 359 336 328 325 325 329 329 313 298 301 271 269 262 202 149 135 23 73 135 136 212 327 348 6 18 23 45
197 190 184 186 192 194 184 179 178 181 174 154 149 144 148 205 248 264 288 309 319 329 332 321 301 289 268 262 260 191 172 148 138 28 62 149 164 139 9 353 0 14 39
199 194 193 195 195 186 179 178 174 184 179 173 168 156 170 215 260 288 308 319 323 327 329 323 311 300 274 260 258 180 171 162 160 160 153 95 74 103 146 355 345 0 355
199 198 193 181 183 177 175 173 178 194 190 186 179 177 188 204 255 298 309 316 317 321 328 325 322 305 284 265 241 201 183 182 167 166 160 151 147 165 149 178 274 329 320
188 188 184 184 187 185 186 182 186 200 198 194 198 198 199 200 216 243 259 282 301 305 315 324 317 310 291 275 248 196 196 188 176 186 194 184 185 168 163 157 173 330 330
196 195 195 192 193 194 189 186 193 203 200 201 211 207 205 205 224 233 236 252 261 274 297 309 310 315 308 304 197 186 210 191 191 206 191 190 209 180 173 165 154 129 349
209 206 201 197 196 196 196 193 195 203 206 208 208 208 210 211 226 239 237 256 271 282 301 315 327 329 341 8 91 107 262 192 193 207 198 198 218 180 181 168 162 156 164
222 216 209 205 204 202 200 193 196 203 207 205 205 209 213 217 222 222 242 259 275 291 315 325 331 335 345 7 52 6 343 121 207 183 168 187 206 153 168 172 172 169 166
233 223 215 207 200 194 192 196 203 206 207 205 206 209 216 215 210 218 239 248 265 283 294 304 319 327 332 353 16 344 40 85 346 161 175 204 175 154 163 156 157 168 162
243 231 216 198 194 197 197 200 205 208 211 206 203 209 211 203 209 229 242 240 247 261 271 290 314 316 328 340 314 314 349 207 265 265 189 219 173 165 168 156 167 172 173
270 243 212 203 205 206 205 206 208 211 207 197 201 208 210 207 217 230 234 229 232 251 266 246 270 294 297 289 272 270 286 273 263 271 223 227 164 176 189 174 170 172 157
291 262 239 230 223 216 210 209 214 209 200 193 197 207 214 214 218 225 224 224 222 227 240 236 248 272 280 269 259 256 290 297 312 316 271 223 188 200 194 182 179 156 135
329 293 264 248 232 227 223 214 213 204 195 192 203 215 217 214 213 219 222 220 217 223 227 229 261 283 275 260 229 214 210 245 338 346 329 286 208 202 193 182 177 157 146
327 319 301 274 249 233 226 219 216 205 189 198 212 215 209 208 212 217 215 213 219 223 213 222 240 263 271 268 210 183 172 166 188 322 325 321 334 286 217 181 168 166 164
324 320 301 277 260 244 222 218 218 199 192 205 213 208 204 209 216 214 207 212 217 214 216 227 229 247 266 259 217 191 167 170 194 224 300 338 351 23 91 81 98 147 185
330 324 315 301 284 264 234 218 192 190 201 210 215 210 204 212 213 207 213 216 211 210 216 224 225 238 258 242 210 179 155 151 177 210 216 221 295 283 134 123 95 62 338
304 302 297 288 296 297 237 171 177 187 202 217 220 215 207 209 208 212 219 215 205 210 212 215 217 225 251 233 204 175 150 158 214 250 231 211 235 259 151 132 134 39 323
328 330 333 338 332 318 226 164 193 199 221 228 226 217 205 205 211 217 217 210 204 211 209 216 217 217 233 231 209 180 161 175 211 253 279 238 212 231 169 156 157 188 264
337 343 351 343 319 321 175 206 220 231 238 235 224 213 209 211 214 212 209 203 201 202 206 215 223 221 227 229 216 190 176 185 188 200 233 252 210 175 163 160 172 202 194
348 349 346 333 330 333 254 248 254 257 251 226 219 218 216 217 213 203 204 197 194 199 209 215 229 231 229 223 221 206 194 182 177 195 206 209 163 145 138 150 175 162 136
336 334 329 326 328 323 285 260 268 274 252 232 230 227 216 212 201 197 201 198 195 202 212 211 223 234 229 224 216 206 194 183 179 187 179 169 155 136 118 100 120 123 119
329 328 327 323 318 313 300 275 281 262 233 240 243 232 215 215 209 204 201 202 205 209 213 214 220 225 224 220 210 199 191 182 178 175 159 146 131 117 106 89 83 101 127
318 322 317 311 308 310 302 297 294 263 244 245 244 235 223 216 215 214 214 213 217 212 212 219 213 209 222 224 203 189 191 187 181 155 131 128 130 134 120 97 86 90 105
314 319 316 311 309 308 305 300 291 265 248 253 248 237 227 221 215 214 242 246 233 230 220 215 210 221 219 210 200 197 193 185 169 151 162 178 178 180 181 171 159 142 144
Height
1501 1503 1505 1507 1509 1511 1512 1512 1513 1513 1513 1513 1513 1513 1513 1512 1511 1510 1509 1508 1506 1504 1503 1502 1501 1500 1499 1498 1498 1497 1497 1497 1498 1498 1498 1498 1499 1499 1500 1501 1503 1505 1506
1499 1501 1503 1505 1507 1509 1510 1511 1512 1513 1513 1513 1513 1513 1512 1511 1511 1510 1509 1507 1506 1504 1502 1501 1500 1499 1498 1497 1497 1497 1497 1497 1497 1498 1498 1498 1500 1499 1499 1500 1502 1503 1505
1497 1499 1501 1503 1506 1508 1509 1510 1511 1512 1512 1512 1512 1512 1511 1511 1510 1509 1508 1507 1505 1504 1502 1501 1500 1498 1497 1497 1496 1496 1496 1496 1497 1497 1498 1498 1498 1498 1499 1499 1501 1502 1504
1495 1497 1499 1501 1504 1506 1508 1510 1511 1511 1512 1512 1511 1511 1510 1510 1509 1508 1507 1506 1505 1503 1502 1500 1499 1498 1496 1496 1495 1495 1495 1496 1496 1497 1497 1498 1498 1498 1499 1500 1500 1501 1503
1492 1494 1497 1499 1502 1505 1507 1508 1510 1510 1511 1511 1511 1510 1510 1509 1509 1508 1507 1506 1504 1503 1502 1500 1499 1497 1496 1495 1495 1495 1495 1495 1496 1496 1496 1497 1497 1498 1498 1499 1499 1501 1502
1490 1493 1496 1498 1501 1503 1505 1507 1508 1509 1509 1510 1510 1509 1509 1509 1508 1507 1506 1505 1504 1503 1501 1500 1498 1497 1495 1494 1494 1494 1494 1494 1495 1495 1496 1496 1497 1497 1497 1498 1499 1500 1501
1488 1491 1493 1496 1498 1500 1503 1505 1506 1507 1508 1508 1509 1509 1509 1508 1507 1507 1506 1505 1504 1503 1501 1500 1498 1497 1495 1494 1494 1493 1493 1493 1494 1494 1495 1495 1496 1496 1497 1498 1498 1499 1500
1487 1489 1491 1494 1496 1498 1501 1503 1504 1505 1507 1507 1507 1508 1508 1507 1507 1506 1505 1505 1504 1502 1501 1500 1498 1497 1495 1494 1493 1493 1493 1493 1493 1493 1494 1494 1494 1495 1496 1497 1497 1498 1499
1486 1488 1490 1492 1494 1497 1499 1501 1502 1504 1505 1506 1506 1506 1506 1506 1506 1505 1505 1504 1503 1502 1501 1500 1498 1497 1495 1494 1493 1493 1492 1492 1492 1492 1493 1493 1493 1494 1494 1495 1496 1498 1498
1485 1486 1488 1490 1493 1495 1497 1499 1501 1502 1503 1504 1504 1505 1505 1505 1505 1504 1504 1503 1503 1502 1501 1500 1498 1497 1495 1494 1493 1493 1492 1492 1492 1492 1492 1492 1492 1493 1493 1494 1495 1496 1498
1483 1485 1486 1488 1491 1493 1495 1497 1499 1500 1501 1502 1503 1503 1503 1503 1503 1503 1503 1503 1502 1502 1501 1500 1498 1497 1496 1495 1494 1493 1492 1492 1492 1491 1491 1491 1492 1492 1493 1493 1494 1495 1496
1482 1483 1485 1487 1488 1490 1492 1494 1496 1497 1499 1500 1501 1501 1502 1502 1502 1502 1502 1501 1501 1501 1500 1499 1498 1497 1496 1495 1494 1493 1492 1492 1491 1491 1491 1491 1491 1492 1492 1493 1493 1494 1495
1481 1482 1483 1484 1485 1487 1489 1491 1493 1495 1496 1497 1498 1499 1499 1500 1500 1500 1500 1500 1500 1500 1499 1498 1497 1497 1496 1495 1494 1493 1492 1492 1491 1491 1491 1491 1491 1491 1491 1492 1493 1493 1494
1480 1481 1481 1482 1483 1485 1486 1488 1490 1492 1493 1495 1495 1496 1497 1497 1498 1498 1498 1499 1498 1498 1498 1497 1496 1496 1495 1494 1494 1493 1492 1491 1491 1490 1490 1490 1490 1490 1491 1491 1492 1492 1493
1480 1480 1480 1481 1482 1483 1484 1485 1487 1489 1490 1491 1492 1493 1494 1495 1495 1496 1496 1497 1497 1497 1496 1496 1495 1495 1494 1493 1493 1492 1492 1491 1490 1490 1490 1490 1490 1490 1490 1491 1491 1492 1492
1480 1479 1479 1480 1480 1481 1482 1483 1484 1485 1487 1488 1489 1490 1491 1492 1492 1493 1494 1494 1494 1495 1495 1494 1494 1493 1492 1492 1492 1491 1491 1490 1490 1489 1489 1489 1489 1489 1489 1490 1490 1491 1491
1480 1479 1479 1478 1478 1479 1479 1480 1481 1483 1484 1485 1486 1487 1488 1489 1489 1490 1491 1491 1492 1492 1492 1492 1492 1491 1491 1490 1490 1490 1490 1489 1489 1489 1488 1488 1488 1488 1488 1489 1489 1490 1490
1480 1479 1478 1477 1477 1477 1478 1478 1479 1480 1480 1481 1482 1483 1484 1485 1486 1487 1487 1488 1489 1489 1489 1489 1489 1489 1489 1489 1489 1488 1488 1488 1488 1487 1487 1487 1487 1487 1487 1488 1488 1489 1489
1481 1480 1478 1477 1476 1476 1476 1476 1476 1477 1477 1478 1479 1480 1481 1482 1483 1483 1484 1485 1485 1486 1486 1486 1487 1487 1487 1487 1487 1487 1486 1486 1486 1486 1486 1486 1486 1486 1486 1487 1487 1487 1488
1480 1478 1477 1476 1475 1474 1474 1473 1473 1474 1474 1474 1475 1476 1477 1478 1478 1479 1480 1481 1482 1482 1483 1483 1483 1484 1484 1484 1484 1484 1484 1484 1484 1484 1484 1484 1484 1485 1485 1485 1485 1485 1486
1479 1477 1476 1475 1473 1472 1472 1471 1471 1471 1471 1471 1472 1472 1473 1474 1474 1475 1476 1477 1478 1478 1479 1479 1480 1480 1480 1481 1481 1481 1481 1481 1481 1482 1482 1482 1483 1483 1483 1483 1483 1483 1484
1478 1476 1474 1473 1472 1470 1469 1468 1468 1468 1468 1468 1468 1468 1469 1469 1470 1471 1471 1472 1473 1473 1474 1475 1475 1476 1476 1477 1477 1478 1478 1479 1479 1479 1479 1480 1480 1481 1481 1481 1481 1481 1481
1476 1474 1472 1471 1469 1468 1467 1465 1465 1464 1464 1464 1464 1464 1464 1464 1465 1465 1466 1467 1467 1468 1469 1469 1470 1471 1472 1472 1473 1474 1475 1475 1476 1476 1477 1477 1478 1478 1478 1478 1478 1478 1479
1474 1472 1470 1468 1466 1465 1463 1462 1461 1460 1460 1459 1459 1459 1459 1459 1460 1460 1461 1461 1461 1462 1463 1464 1464 1465 1467 1467 1468 1469 1470 1471 1472 1473 1474 1474 1475 1475 1475 1476 1476 1476 1476
1472 1469 1467 1465 1463 1461 1460 1458 1457 1456 1455 1454 1453 1453 1453 1454 1454 1454 1455 1455 1456 1457 1457 1458 1459 1460 1460 1462 1463 1464 1465 1467 1468 1469 1470 1471 1471 1472 1472 1473 1473 1473 1474
1469 1466 1464 1461 1459 1457 1455 1454 1452 1451 1450 1448 1447 1447 1447 1448 1448 1448 1449 1449 1450 1451 1451 1452 1453 1454 1455 1457 1458 1459 1461 1462 1463 1464 1465 1466 1467 1467 1468 1469 1470 1470 1471